Simultaneous Nadir Overpasses (SNOs) Predictions

Prediction of SNOs between METOP-B and NOAA-19 Satellite Orbit:

Table of predicted SNOs for the next 14.0 days since TLE Epoch: 12/5/2020
Index Date (METOP-B) Time (METOP-B) Lat,Lon (METOP-B) SZA (METOP-B ) Date (NOAA-19) Time (NOAA-19) Lat,Lon (NOAA-19) SZA (NOAA-19 ) Distance(km) Time Diff (sec)
1 12/15/2020 17:01:46 -80.30, 130.17 75.47 12/15/2020 17:00:43 -80.32, 130.09 75.47 2.49 63
2 12/15/2020 17:52:27 80.30, -62.55 104.53 12/15/2020 17:51:41 80.31, -62.54 104.53 1.81 46
3 12/15/2020 18:43:08 -80.29, 104.70 75.48 12/15/2020 18:42:43 -80.31, 104.74 75.47 2.41 25
4 12/15/2020 19:33:49 80.28, -88.02 104.52 12/15/2020 19:33:41 80.30, -87.88 104.54 3.27 8
5 12/15/2020 20:24:29 -80.30, 79.55 75.45 12/15/2020 20:24:43 -80.30, 79.40 75.46 2.84 14
6 12/15/2020 21:15:10 80.30,-113.18 104.55 12/15/2020 21:15:41 80.29,-113.23 104.55 1.23 31
7 12/15/2020 22:05:51 -80.29, 54.08 75.47 12/15/2020 22:06:43 -80.29, 54.05 75.46 0.59 52



Historial Predications of SNOs between METOP-B and NOAA-19
